Аэропорт
Якутск (UEEE)

 UEEE / YKS
ЗЦ Хабаровск
Якутск (UEEE)
Якутск (UEEE)
 62.09330, 129.77100  / 325 ft

 UEEE 251200Z 31003MPS 9999 SCT050CB 15/11 Q1006 R23L/09//60 NOSIG RMK QFE746
 TAF UEEE 250800Z 2509/2615 14003MPS 9999 BKN020CB OVC070 TEMPO 2509/2515 VRB14MPS 1000 TSRAGR SCT007 BKN015CB OVC070
AIP 1605
показать схемы
Название сценария Тип сценария Flight Simulator 9 Flight Simulator X Prepar3D v2 Prepar3D v3 Prepar3D v4 xPlane
ueee-scenery-fs9-1404 бесплатный
ueee-scenery-fsx-1405 бесплатный
ueee-scenery-p3d-1405 бесплатный
ueee-scenery-xpl-1210 бесплатный
ueee-scenery-xpl-1407 бесплатный


2019 © VATRUS division (Privacy Policy)